Location: Br�znic
(45.9167°N, 22.6500°E)
Time: 20:48:07
(UTC+00:00)

IRS-1A Rocket - Pass Details

Date: 03 March 2021
Orbit: 851 x 931 km, 99.2° (Epoch: 13 April)

Event Time Altitude Azimuth Distance (km) Brightness Sun altitude
Exits shadow 18:03:50 24° 140° (SE) 1,737 5.4 -19.0°
Maximum altitude 18:07:10 59° 70° (ENE) 1,006 4.3 -19.6°
Drops below altitude 10° 18:12:38 10° 352° (N) 2,511 6.9 -20.5°
Sets 18:15:01 0° 349° (N) 3,445 7.7 -20.9°
